DW0148 Weather Reports


Display with metric or nautical units.
time (UTC)temp
F
wind
direction
speed
MPH
gust
MPH
rain 1hr
in
rain 24hr
in
rain mn
in
humidity
%
barometer
mb
20181119214322 61 187 7.0 15.0 0.00 0.00 0.00 65 1018.5
20181119213821 61 193 7.0 15.0 0.00 0.00 0.00 65 1018.8
20181119213320 61 168 3.0 14.0 0.00 0.00 0.00 65 1018.5
20181119212819 61 169 7.0 14.0 0.00 0.00 0.00 64 1018.8
20181119212318 61 187 5.0 14.0 0.00 0.00 0.00 63 1018.5
20181119211817 61 172 4.0 14.0 0.00 0.00 0.00 63 1018.5
20181119211316 61 184 5.0 14.0 0.00 0.00 0.00 62 1018.5
20181119210815 62 181 3.0 15.0 0.00 0.00 0.00 61 1018.5
20181119210314 62 128 6.0 18.0 0.00 0.00 0.00 59 1018.5
20181119205813 62 180 10.0 18.0 0.00 0.00 0.00 59 1018.5
20181119205312 62 179 5.0 20.0 0.00 0.00 0.00 60 1018.5
20181119204811 63 172 3.0 20.0 0.00 0.00 0.00 59 1018.5
20181119204310 63 178 9.0 23.0 0.00 0.00 0.00 57 1018.8
20181119203809 64 178 13.0 23.0 0.00 0.00 0.00 55 1018.8
20181119203308 64 175 7.0 16.0 0.00 0.00 0.00 56 1018.5
20181119202807 63 182 7.0 16.0 0.00 0.00 0.00 57 1018.5
20181119202306 63 176 9.0 15.0 0.00 0.00 0.00 57 1018.8
20181119201805 63 167 6.0 18.0 0.00 0.00 0.00 58 1018.8
20181119201304 63 201 7.0 18.0 0.00 0.00 0.00 58 1018.8
20181119200803 63 193 7.0 14.0 0.00 0.00 0.00 56 1018.8
20181119200302 63 159 6.0 14.0 0.00 0.00 0.00 56 1018.8
20181119195801 64 190 5.0 10.0 0.00 0.00 0.00 55 1018.8
20181119195300 64 153 4.0 13.0 0.00 0.00 0.00 54 1018.8
20181119194759 64 181 6.0 15.0 0.00 0.00 0.00 54 1018.8
20181119194258 64 112 4.0 15.0 0.00 0.00 0.00 57 1018.8
20181119193757 64 183 7.0 14.0 0.00 0.00 0.00 55 1019.1
20181119193255 64 194 6.0 13.0 0.00 0.00 0.00 55 1019.1
20181119192754 64 156 7.0 13.0 0.00 0.00 0.00 55 1019.1
20181119192253 64 205 4.0 13.0 0.00 0.00 0.00 56 1019.1
20181119191752 64 204 3.0 11.0 0.00 0.00 0.00 57 1019.1
20181119191251 64 170 5.0 11.0 0.00 0.00 0.00 55 1019.5
20181119190750 65 179 5.0 10.0 0.00 0.00 0.00 54 1019.1
20181119190249 66 173 5.0 12.0 0.00 0.00 0.00 52 1019.5
20181119185747 66 162 3.0 12.0 0.00 0.00 0.00 54 1019.5
20181119185247 66 227 2.0 13.0 0.00 0.00 0.00 55 1019.5
20181119184745 66 147 3.0 13.0 0.00 0.00 0.00 55 1019.5
20181119184245 65 186 5.0 10.0 0.00 0.00 0.00 56 1019.5
20181119183743 65 174 4.0 11.0 0.00 0.00 0.00 58 1019.8
20181119183242 64 175 7.0 11.0 0.00 0.00 0.00 56 1019.8
20181119182741 64 223 2.0 9.0 0.00 0.00 0.00 59 1019.8
20181119182240 64 161 3.0 9.0 0.00 0.00 0.00 61 1019.8
20181119181739 64 218 2.0 11.0 0.00 0.00 0.00 61 1019.8
20181119181239 64 153 5.0 11.0 0.00 0.00 0.00 60 1020.1
20181119180737 64 206 2.0 5.0 0.00 0.00 0.00 61 1020.5
20181119180237 64 194 3.0 5.0 0.00 0.00 0.00 60 1020.5
20181119175735 63 223 2.0 4.0 0.00 0.00 0.00 64 1020.5
20181119175234 62 154 2.0 4.0 0.00 0.00 0.00 64 1020.5
20181119174733 61 82 1.0 4.0 0.00 0.00 0.00 66 1020.8
20181119174232 61 178 2.0 5.0 0.00 0.00 0.00 67 1020.8
20181119173731 60 229 2.0 5.0 0.00 0.00 0.00 69 1020.8
20181119173231 60 222 2.0 6.0 0.00 0.00 0.00 68 1021.2
20181119172730 60 214 2.0 6.0 0.00 0.00 0.00 69 1021.2
20181119172229 59 217 1.0 4.0 0.00 0.00 0.00 71 1021.2
20181119171728 59 218 2.0 4.0 0.00 0.00 0.00 73 1021.5
20181119171227 58 162 1.0 5.0 0.00 0.00 0.00 72 1021.5
20181119170726 57 252 0.0 5.0 0.00 0.00 0.00 75 1021.8
20181119170224 57 269 1.0 5.0 0.00 0.00 0.00 76 1021.8
20181119165720 56 143 3.0 5.0 0.00 0.00 0.00 76 1021.8
20181119165218 56 280 1.0 3.0 0.00 0.00 0.00 78 1021.8
20181119164717 55 186 2.0 4.0 0.00 0.00 0.00 77 1021.8
20181119164216 55 263 1.0 5.0 0.00 0.00 0.00 79 1022.2
20181119163715 54 252 1.0 5.0 0.00 0.00 0.00 79 1022.2
20181119163214 54 142 3.0 5.0 0.00 0.00 0.00 80 1022.5
20181119162713 53 252 1.0 5.0 0.00 0.00 0.00 84 1022.5
20181119162211 52 159 2.0 5.0 0.00 0.00 0.00 84 1022.5
20181119161711 52 151 2.0 5.0 0.00 0.00 0.00 86 1022.9
20181119161209 52 24 4.0 5.0 0.00 0.00 0.00 85 1022.9
20181119160708 52 347 2.0 4.0 0.00 0.00 0.00 84 1022.9
20181119160207 52 251 1.0 3.0 0.00 0.00 0.00 85 1022.9
20181119155706 51 145 1.0 5.0 0.00 0.00 0.00 87 1023.2
20181119155205 50 147 2.0 5.0 0.00 0.00 0.00 89 1023.2
20181119154704 49 275 1.0 6.0 0.00 0.00 0.00 90 1023.2
20181119154202 50 157 3.0 6.0 0.00 0.00 0.00 88 1023.5
20181119153701 50 161 2.0 5.0 0.00 0.00 0.00 91 1023.5
20181119153201 49 239 1.0 3.0 0.00 0.00 0.00 95 1023.2
20181119152659 49 137 1.0 3.0 0.00 0.00 0.00 96 1023.2
20181119152158 48 199 1.0 3.0 0.00 0.00 0.00 96 1023.2
20181119151657 47 275 2.0 3.0 0.00 0.00 0.00 96 1023.2
20181119151156 47 284 1.0 4.0 0.00 0.00 0.00 96 1023.2
20181119150655 46 194 2.0 4.0 0.00 0.00 0.00 96 1023.5
20181119150154 46 7 2.0 3.0 0.00 0.00 0.00 96 1023.5
20181119145653 46 43 2.0 3.0 0.00 0.00 0.00 96 1023.5
20181119145152 46 338 1.0 1.0 0.00 0.00 0.00 96 1023.5
20181119144651 45 41 0.0 1.0 0.00 0.00 0.00 96 1023.5
20181119144150 44 31 1.0 1.0 0.00 0.00 0.00 96 1023.5
20181119143649 43 347 1.0 1.0 0.00 0.00 0.00 96 1023.5
20181119143148 43 53 0.0 1.0 0.00 0.00 0.00 96 1023.5
20181119142647 43 53 1.0 1.0 0.00 0.00 0.00 96 1023.5
20181119142146 43 53 1.0 1.0 0.00 0.00 0.00 96 1023.9
20181119141645 43 52 1.0 1.0 0.00 0.00 0.00 96 1023.5
20181119141144 43 51 0.0 0.0 0.00 0.00 0.00 96 1023.9
20181119140643 43 51 0.0 1.0 0.00 0.00 0.00 96 1023.9
20181119140142 43 51 0.0 1.0 0.00 0.00 0.00 96 1023.9
20181119135641 42 51 0.0 1.0 0.00 0.00 0.00 96 1023.9
20181119135139 42 51 0.0 1.0 0.00 0.00 0.00 96 1023.9
20181119134639 42 51 0.0 1.0 0.00 0.00 0.00 96 1023.9
20181119134138 42 70 0.0 1.0 0.00 0.00 0.00 96 1023.9
20181119133636 42 69 0.0 1.0 0.00 0.00 0.00 96 1023.9
20181119133135 42 70 0.0 1.0 0.00 0.00 0.00 96 1023.9
20181119132634 42 70 0.0 1.0 0.00 0.00 0.00 96 1024.2
20181119132133 41 71 0.0 0.0 0.00 0.00 0.00 96 1023.9
20181119131632 40 70 0.0 0.0 0.00 0.00 0.00 96 1023.9
20181119131131 40 71 0.0 0.0 0.00 0.00 0.00 96 1024.2
20181119130630 40 71 0.0 0.0 0.00 0.00 0.00 96 1024.2
20181119130129 39 70 0.0 0.0 0.00 0.00 0.00 96 1024.2
20181119125628 39 71 0.0 0.0 0.00 0.00 0.00 96 1024.2
20181119125127 39 71 0.0 0.0 0.00 0.00 0.00 96 1024.2
20181119124626 38 71 0.0 0.0 0.00 0.00 0.00 96 1023.9
20181119124126 38 70 0.0 0.0 0.00 0.00 0.00 96 1023.9
20181119123625 38 71 0.0 0.0 0.00 0.00 0.00 96 1023.9
20181119123124 38 70 0.0 0.0 0.00 0.00 0.00 96 1023.9
20181119122623 38 70 0.0 0.0 0.00 0.00 0.00 96 1023.5
20181119122122 37 70 0.0 0.0 0.00 0.00 0.00 96 1023.5
20181119121621 37 70 0.0 0.0 0.00 0.00 0.00 96 1023.5
20181119121120 37 70 0.0 0.0 0.00 0.00 0.00 96 1023.5
20181119120619 37 70 0.0 0.0 0.00 0.00 0.00 96 1023.5
20181119120118 37 70 0.0 0.0 0.00 0.00 0.00 96 1023.5
20181119115617 37 70 0.0 1.0 0.00 0.00 0.00 96 1023.5
20181119115116 37 71 0.0 1.0 0.00 0.00 0.00 96 1023.5
20181119114615 37 71 0.0 1.0 0.00 0.00 0.00 96 1023.5
20181119114114 37 70 0.0 1.0 0.00 0.00 0.00 96 1023.5
20181119113613 38 70 0.0 0.0 0.00 0.00 0.00 96 1023.5
20181119113112 38 70 0.0 1.0 0.00 0.00 0.00 96 1023.5
20181119112611 38 70 0.0 1.0 0.00 0.00 0.00 96 1023.5
20181119112110 38 71 0.0 1.0 0.00 0.00 0.00 96 1023.5
20181119111609 38 70 0.0 1.0 0.00 0.01 0.00 96 1023.5
20181119111108 38 71 0.0 0.0 0.00 0.01 0.00 96 1023.5
20181119110607 38 70 0.0 0.0 0.00 0.01 0.00 96 1023.5
20181119110106 38 71 0.0 0.0 0.00 0.01 0.00 96 1023.5
20181119105605 39 70 0.0 0.0 0.00 0.01 0.00 96 1023.5
20181119105104 39 70 0.0 1.0 0.00 0.01 0.00 96 1023.5
20181119104603 39 70 0.0 1.0 0.00 0.01 0.00 96 1023.5
20181119104102 39 70 0.0 1.0 0.00 0.01 0.00 96 1023.5
20181119103601 39 71 1.0 1.0 0.00 0.01 0.00 96 1023.5
20181119103100 39 70 0.0 0.0 0.00 0.01 0.00 96 1023.5
20181119102559 39 71 0.0 0.0 0.00 0.01 0.00 96 1023.5
20181119102058 39 70 0.0 0.0 0.00 0.01 0.00 96 1023.5
20181119101557 39 70 0.0 0.0 0.00 0.01 0.00 96 1023.5
20181119101056 39 71 0.0 0.0 0.00 0.01 0.00 96 1023.5
20181119100554 39 70 0.0 0.0 0.00 0.01 0.00 96 1023.5
20181119100053 39 70 0.0 0.0 0.00 0.01 0.00 96 1023.5
20181119095552 39 70 0.0 0.0 0.00 0.01 0.00 96 1023.5
20181119095052 39 71 0.0 0.0 0.00 0.01 0.00 96 1023.5
20181119094551 39 70 0.0 0.0 0.00 0.01 0.00 96 1023.5
20181119094050 39 71 0.0 1.0 0.00 0.01 0.00 96 1023.5
20181119093549 39 70 0.0 1.0 0.00 0.01 0.00 96 1023.5
20181119093048 39 70 0.0 1.0 0.00 0.01 0.00 96 1023.5
20181119092547 39 71 1.0 1.0 0.00 0.01 0.00 96 1023.5
20181119092046 39 71 0.0 0.0 0.00 0.01 0.00 96 1023.5
20181119091545 40 71 0.0 0.0 0.00 0.01 0.00 96 1023.5
20181119091044 39 71 0.0 1.0 0.00 0.01 0.00 96 1023.5
20181119090543 39 70 0.0 1.0 0.00 0.01 0.00 96 1023.5
20181119090042 39 71 0.0 1.0 0.00 0.01 0.00 96 1023.5
20181119085541 39 70 1.0 1.0 0.00 0.01 0.00 96 1023.5
20181119085040 40 71 0.0 0.0 0.00 0.01 0.00 96 1023.5
20181119084539 40 71 0.0 0.0 0.00 0.01 0.00 96 1023.5
20181119084038 40 70 0.0 1.0 0.00 0.01 0.00 96 1023.5
20181119083537 40 71 0.0 1.0 0.00 0.01 0.00 96 1023.5
20181119083036 39 70 0.0 1.0 0.00 0.01 0.00 96 1023.5
20181119082534 39 71 0.0 1.0 0.00 0.01 0.00 96 1023.5
20181119082034 39 70 0.0 1.0 0.00 0.01 0.00 96 1023.5
20181119081533 39 71 0.0 1.0 0.00 0.01 0.00 96 1023.9
20181119081026 39 70 0.0 0.0 0.00 0.01 0.00 96 1023.9
20181119080525 40 70 0.0 0.0 0.00 0.01 0.00 96 1023.9
20181119080021 40 70 0.0 0.0 0.00 0.01 0.00 96 1023.9
20181119075520 40 70 0.0 0.0 0.00 0.01 0.00 96 1023.9
20181119075019 40 71 0.0 0.0 0.00 0.01 0.00 96 1023.9
20181119074518 40 71 0.0 0.0 0.00 0.01 0.00 96 1023.5
20181119074017 40 70 0.0 0.0 0.00 0.01 0.00 96 1023.9
20181119073515 40 70 0.0 0.0 0.00 0.01 0.00 96 1023.5
20181119073014 41 70 0.0 0.0 0.00 0.01 0.00 96 1023.5
20181119072513 41 71 0.0 0.0 0.00 0.01 0.00 96 1023.5
20181119072012 41 71 0.0 0.0 0.00 0.01 0.00 96 1023.5
20181119071511 41 70 0.0 0.0 0.00 0.01 0.00 96 1023.9
20181119071010 41 70 0.0 0.0 0.00 0.01 0.00 96 1023.9
20181119070509 41 70 0.0 0.0 0.00 0.01 0.00 96 1023.9
20181119070008 41 71 0.0 0.0 0.00 0.01 0.00 96 1023.9
20181119065507 41 70 0.0 0.0 0.00 0.01 0.00 96 1023.9
20181119065006 41 70 0.0 0.0 0.00 0.01 0.00 96 1023.9
20181119064505 41 71 0.0 0.0 0.00 0.01 0.00 96 1023.9
20181119064004 42 70 0.0 0.0 0.00 0.01 0.00 96 1023.9
20181119063503 42 70 0.0 0.0 0.00 0.01 0.00 96 1023.9
20181119063002 42 70 0.0 0.0 0.00 0.01 0.00 96 1023.9
20181119062501 42 70 0.0 0.0 0.00 0.01 0.00 96 1023.9
20181119062000 42 70 0.0 1.0 0.00 0.01 0.00 96 1023.9
20181119061459 42 70 0.0 1.0 0.00 0.01 0.00 96 1023.9
20181119060958 42 71 0.0 1.0 0.00 0.01 0.00 96 1023.9
20181119060457 43 71 0.0 1.0 0.00 0.01 0.00 96 1023.9
20181119055956 43 70 0.0 1.0 0.00 0.01 0.00 96 1023.9
20181119055455 43 70 0.0 0.0 0.00 0.01 0.00 96 1023.9
20181119054954 43 71 0.0 0.0 0.00 0.01 0.00 96 1023.9
20181119054453 43 70 0.0 0.0 0.00 0.01 0.00 96 1024.2
20181119053952 43 70 0.0 0.0 0.00 0.01 0.00 96 1023.9
20181119053451 43 71 0.0 0.0 0.00 0.01 0.00 96 1023.9
20181119052950 43 70 0.0 0.0 0.00 0.01 0.00 96 1023.9
20181119052449 43 71 0.0 0.0 0.00 0.01 0.00 96 1023.9
20181119051948 43 70 0.0 0.0 0.00 0.01 0.00 96 1023.9
20181119051447 43 70 0.0 0.0 0.00 0.01 0.00 96 1024.2
20181119050946 43 70 0.0 0.0 0.00 0.01 0.00 96 1024.2
20181119050445 43 71 0.0 0.0 0.00 0.01 0.00 96 1024.2
20181119045944 43 70 0.0 0.0 0.00 0.01 0.01 96 1024.2
20181119045443 43 70 0.0 0.0 0.00 0.01 0.01 96 1024.2
20181119044942 43 70 0.0 0.0 0.00 0.01 0.01 96 1024.2
20181119044441 42 70 0.0 0.0 0.00 0.01 0.01 96 1024.2
20181119043940 42 70 0.0 0.0 0.00 0.01 0.01 96 1024.2
20181119043439 42 71 0.0 0.0 0.00 0.01 0.01 96 1024.6
20181119042938 42 71 0.0 0.0 0.00 0.01 0.01 96 1024.6
20181119042437 42 71 0.0 0.0 0.00 0.01 0.01 96 1024.6
20181119041937 42 70 0.0 0.0 0.00 0.01 0.01 96 1024.6
20181119041435 42 71 0.0 0.0 0.00 0.01 0.01 96 1024.6
20181119040934 41 70 0.0 0.0 0.00 0.01 0.01 96 1024.6
20181119040433 41 70 0.0 0.0 0.00 0.01 0.01 96 1024.6
20181119035932 41 70 0.0 0.0 0.00 0.01 0.01 96 1024.6
20181119035431 41 70 0.0 0.0 0.00 0.01 0.01 96 1024.9
20181119034930 41 70 0.0 0.0 0.00 0.01 0.01 96 1024.9
20181119034429 41 70 0.0 0.0 0.00 0.01 0.01 96 1024.6
20181119033928 41 71 0.0 0.0 0.00 0.01 0.01 96 1024.6
20181119033426 41 70 0.0 0.0 0.00 0.01 0.01 96 1024.6
20181119032925 41 71 0.0 0.0 0.00 0.01 0.01 96 1024.6
20181119032424 40 71 0.0 0.0 0.00 0.01 0.01 96 1024.6
20181119031923 40 71 0.0 0.0 0.00 0.01 0.01 95 1024.6
20181119031422 40 70 0.0 0.0 0.00 0.01 0.01 95 1024.6
20181119030921 40 71 0.0 0.0 0.00 0.01 0.01 95 1024.6
20181119030419 40 70 0.0 0.0 0.00 0.01 0.01 95 1024.6
20181119025919 40 71 0.0 0.0 0.00 0.01 0.01 95 1024.6
20181119025418 40 71 0.0 1.0 0.00 0.01 0.01 95 1024.6
20181119024917 40 70 0.0 1.0 0.00 0.01 0.01 95 1024.6
20181119024416 40 71 0.0 1.0 0.00 0.01 0.01 95 1024.6
20181119023915 41 70 1.0 1.0 0.00 0.01 0.01 95 1024.6
20181119023413 41 71 0.0 0.0 0.00 0.01 0.01 95 1024.6
20181119022913 41 71 0.0 0.0 0.00 0.01 0.01 95 1024.6
20181119022411 41 71 0.0 0.0 0.00 0.01 0.01 95 1024.6
20181119021910 41 70 0.0 0.0 0.00 0.01 0.01 95 1024.6
20181119021409 41 70 0.0 0.0 0.00 0.01 0.01 95 1024.6
20181119020908 41 70 0.0 0.0 0.00 0.01 0.01 95 1024.6
20181119020407 41 70 0.0 0.0 0.00 0.01 0.01 95 1024.6
20181119015905 41 70 0.0 1.0 0.00 0.01 0.01 95 1024.6
20181119015405 41 71 0.0 1.0 0.00 0.01 0.01 95 1024.6
20181119014903 41 70 0.0 1.0 0.00 0.01 0.01 95 1024.6
20181119014402 41 70 0.0 1.0 0.00 0.01 0.01 95 1024.6
20181119013901 41 71 0.0 0.0 0.00 0.01 0.01 94 1024.6
20181119013400 41 70 0.0 0.0 0.00 0.01 0.01 95 1024.6
20181119012859 42 71 0.0 0.0 0.00 0.01 0.01 94 1024.6
20181119012358 42 70 0.0 0.0 0.00 0.01 0.01 94 1024.6
20181119011857 42 70 0.0 0.0 0.00 0.01 0.01 94 1024.6
20181119011356 42 70 0.0 0.0 0.00 0.01 0.01 94 1024.6
20181119010855 42 71 0.0 0.0 0.00 0.01 0.01 94 1024.6
20181119010354 42 71 0.0 0.0 0.00 0.01 0.01 94 1024.6
20181119005853 42 71 0.0 1.0 0.00 0.01 0.01 94 1024.6
20181119005352 42 70 0.0 1.0 0.00 0.01 0.01 94 1024.6
20181119004851 42 70 0.0 2.0 0.00 0.01 0.01 94 1024.6
20181119004350 43 70 0.0 3.0 0.00 0.01 0.01 93 1024.6
20181119003849 43 73 1.0 3.0 0.00 0.01 0.01 94 1024.6
20181119003347 43 87 2.0 3.0 0.00 0.01 0.01 94 1024.6
20181119002846 43 94 0.0 0.0 0.00 0.01 0.01 93 1024.2
20181119002345 43 94 0.0 0.0 0.00 0.01 0.01 93 1024.2
20181119001844 44 94 0.0 1.0 0.00 0.01 0.01 93 1024.2
20181119001343 44 94 0.0 1.0 0.00 0.01 0.01 93 1024.2
20181119000842 44 94 0.0 1.0 0.00 0.01 0.01 93 1024.2
20181119000341 44 94 1.0 1.0 0.00 0.01 0.01 93 1024.2
20181118235840 44 95 0.0 1.0 0.00 0.01 0.01 92 1024.2
20181118235339 44 100 0.0 1.0 0.00 0.01 0.01 92 1024.2
20181118234838 45 101 0.0 1.0 0.00 0.01 0.01 91 1024.2
20181118234337 45 101 0.0 1.0 0.00 0.01 0.01 91 1024.6
20181118233836 46 101 0.0 1.0 0.00 0.01 0.01 90 1024.6
20181118233335 46 101 1.0 1.0 0.00 0.01 0.01 91 1024.2
20181118232834 46 110 1.0 1.0 0.00 0.01 0.01 91 1024.2
20181118232333 46 236 0.0 1.0 0.00 0.01 0.01 90 1024.2
20181118231832 46 236 1.0 1.0 0.00 0.01 0.01 89 1024.2
20181118231331 47 236 0.0 1.0 0.00 0.01 0.01 89 1024.2
20181118230829 47 236 0.0 1.0 0.00 0.01 0.01 89 1023.9
20181118230328 47 236 0.0 1.0 0.00 0.01 0.01 89 1023.9
20181118225827 47 237 1.0 1.0 0.00 0.01 0.01 90 1023.9
20181118225327 47 240 0.0 1.0 0.00 0.01 0.01 89 1023.9
20181118224826 47 240 0.0 1.0 0.00 0.01 0.01 89 1023.9
20181118224325 48 240 1.0 1.0 0.00 0.01 0.01 88 1023.9
20181118223824 48 240 0.0 1.0 0.00 0.01 0.01 87 1023.9
20181118223322 49 240 0.0 1.0 0.00 0.01 0.01 86 1023.9
20181118222821 50 240 0.0 1.0 0.00 0.01 0.01 84 1024.2
20181118222320 51 240 1.0 1.0 0.00 0.01 0.01 84 1023.9
20181118221819 52 240 0.0 1.0 0.00 0.01 0.01 83 1023.9
20181118221317 53 240 0.0 1.0 0.00 0.01 0.01 81 1024.2
20181118220816 54 240 0.0 0.0 0.00 0.01 0.01 79 1024.2
20181118220314 55 240 0.0 0.0 0.00 0.01 0.01 76 1023.9
20181118215813 56 240 0.0 0.0 0.00 0.01 0.01 75 1023.9
20181118215312 56 240 0.0 0.0 0.00 0.01 0.01 71 1023.9
20181118214811 57 240 0.0 1.0 0.00 0.01 0.01 70 1023.9